• In United Kingdom
  • List of Countries
  • For 7 days
  • Water Temperature
  • Satellite Maps
  • Weather Map
  • Weather Widgets
  • user-avatar
    Login

    Hourly Weather Casablanca

    Today, 25 November, Saturday

    Time Temperature Precipitation Wind Pressure Humidity
    00:00 +23°C° 0 mm 1 mps 762 mmHg 29%
    01:00 +22°C° 0 mm 1 mps 762 mmHg 30%
    02:00 +22°C° 0 mm 1 mps 761 mmHg 30%
    03:00 +22°C° 0 mm 1 mps 762 mmHg 30%
    04:00 +22°C° 0 mm 1 mps 762 mmHg 30%
    05:00 +22°C° 0 mm 1 mps 762 mmHg 30%
    06:00 +22°C° 0 mm 1 mps 762 mmHg 29%
    07:00 +23°C° 0 mm 1 mps 762 mmHg 28%
    08:00 +24°C° 0 mm 1 mps 762 mmHg 27%
    09:00 +25°C° 0 mm 1 mps 762 mmHg 26%
    10:00 +27°C° 0 mm 1 mps 763 mmHg 25%
    11:00 +28°C° 0 mm 1 mps 763 mmHg 24%
    12:00 +28°C° 0 mm 1 mps 762 mmHg 24%
    13:00 +28°C° 0 mm 1 mps 762 mmHg 24%
    14:00 +28°C° 0 mm 2 mps 762 mmHg 24%
    15:00 +27°C° 0 mm 2 mps 762 mmHg 26%
    16:00 +25°C° 0 mm 2 mps 762 mmHg 28%
    17:00 +24°C° 0 mm 2 mps 762 mmHg 31%
    18:00 +24°C° 0 mm 2 mps 763 mmHg 32%
    19:00 +23°C° 0 mm 2 mps 763 mmHg 33%
    20:00 +22°C° 0 mm 3 mps 763 mmHg 34%
    21:00 +21°C° 0 mm 3 mps 763 mmHg 35%
    22:00 +21°C° 0 mm 2 mps 763 mmHg 35%
    23:00 +21°C° 0 mm 2 mps 763 mmHg 36%

    Tomorrow, 26 November, Sunday

    Time Temperature Precipitation Wind Pressure Humidity
    00:00 +21°C° 0 mm 2 mps 763 mmHg 36%
    01:00 +21°C° 0 mm 2 mps 763 mmHg 36%
    02:00 +20°C° 0 mm 2 mps 763 mmHg 36%
    03:00 +20°C° 0 mm 2 mps 763 mmHg 36%
    04:00 +20°C° 0 mm 3 mps 764 mmHg 37%
    05:00 +20°C° 0 mm 3 mps 764 mmHg 37%
    06:00 +21°C° 0 mm 3 mps 764 mmHg 35%
    07:00 +21°C° 0 mm 3 mps 765 mmHg 34%
    08:00 +22°C° 0 mm 4 mps 765 mmHg 32%
    09:00 +25°C° 0 mm 4 mps 765 mmHg 29%
    10:00 +27°C° 0 mm 3 mps 765 mmHg 26%
    11:00 +28°C° 0 mm 3 mps 765 mmHg 23%
    12:00 +28°C° 0 mm 4 mps 765 mmHg 24%
    13:00 +29°C° 0 mm 5 mps 764 mmHg 25%
    14:00 +29°C° 0 mm 5 mps 764 mmHg 27%
    15:00 +27°C° 0 mm 6 mps 764 mmHg 31%
    16:00 +26°C° 0 mm 6 mps 764 mmHg 36%
    17:00 +24°C° 0 mm 6 mps 765 mmHg 40%
    18:00 +23°C° 0 mm 6 mps 765 mmHg 42%
    19:00 +23°C° 0 mm 6 mps 765 mmHg 43%
    20:00 +22°C° 0 mm 5 mps 765 mmHg 45%
    21:00 +22°C° 0 mm 5 mps 765 mmHg 46%
    22:00 +21°C° 0 mm 4 mps 764 mmHg 47%
    23:00 +21°C° 0 mm 4 mps 764 mmHg 48%

    Day after tomorrow, 27 November, Monday

    Time Temperature Precipitation Wind Pressure Humidity
    00:00 +21°C° 0 mm 4 mps 764 mmHg 47%
    01:00 +21°C° 0 mm 4 mps 764 mmHg 45%
    02:00 +21°C° 0 mm 3 mps 764 mmHg 43%
    03:00 +21°C° 0 mm 3 mps 764 mmHg 41%
    04:00 +21°C° 0 mm 3 mps 764 mmHg 39%
    05:00 +21°C° 0 mm 3 mps 764 mmHg 37%
    06:00 +23°C° 0 mm 2 mps 764 mmHg 36%
    07:00 +24°C° 0 mm 2 mps 764 mmHg 34%
    08:00 +24°C° 0 mm 2 mps 765 mmHg 32%
    09:00 +25°C° 0 mm 2 mps 765 mmHg 30%
    10:00 +27°C° 0 mm 2 mps 765 mmHg 29%
    11:00 +28°C° 0 mm 3 mps 765 mmHg 27%
    12:00 +28°C° 0 mm 3 mps 764 mmHg 28%
    13:00 +28°C° 0 mm 3 mps 764 mmHg 29%
    14:00 +28°C° 0 mm 3 mps 763 mmHg 30%
    15:00 +27°C° 0.1 mm 3 mps 763 mmHg 34%
    16:00 +25°C° 0.1 mm 3 mps 763 mmHg 37%
    17:00 +24°C° 0.1 mm 3 mps 763 mmHg 41%
    18:00 +24°C° 0 mm 2 mps 763 mmHg 40%
    19:00 +24°C° 0 mm 2 mps 764 mmHg 40%
    20:00 +24°C° 0 mm 2 mps 764 mmHg 39%
    21:00 +24°C° 0 mm 2 mps 764 mmHg 38%
    22:00 +24°C° 0 mm 2 mps 763 mmHg 38%
    23:00 +24°C° 0 mm 2 mps 763 mmHg 37%

    28 November, Tuesday

    Time Temperature Precipitation Wind Pressure Humidity
    00:00 +24°C° 0 mm 2 mps 763 mmHg 38%
    01:00 +24°C° 0 mm 2 mps 762 mmHg 38%
    02:00 +24°C° 0 mm 2 mps 762 mmHg 39%
    03:00 +24°C° 0 mm 2 mps 762 mmHg 37%
    04:00 +24°C° 0 mm 2 mps 761 mmHg 36%
    05:00 +24°C° 0 mm 2 mps 761 mmHg 35%
    06:00 +24°C° 0 mm 3 mps 761 mmHg 33%
    07:00 +25°C° 0 mm 4 mps 761 mmHg 31%
    08:00 +25°C° 0 mm 4 mps 761 mmHg 30%
    09:00 +26°C° 0 mm 5 mps 761 mmHg 29%
    10:00 +28°C° 0 mm 5 mps 761 mmHg 28%
    11:00 +29°C° 0 mm 5 mps 760 mmHg 28%
    12:00 +29°C° 0 mm 5 mps 760 mmHg 27%
    13:00 +29°C° 0 mm 5 mps 759 mmHg 26%
    14:00 +28°C° 0 mm 5 mps 759 mmHg 25%
    15:00 +27°C° 0 mm 4 mps 759 mmHg 29%
    16:00 +26°C° 0 mm 4 mps 759 mmHg 33%
    17:00 +25°C° 0 mm 4 mps 759 mmHg 36%
    18:00 +25°C° 0 mm 5 mps 759 mmHg 37%
    19:00 +23°C° 0 mm 5 mps 759 mmHg 37%
    20:00 +23°C° 0 mm 6 mps 759 mmHg 37%
    21:00 +23°C° 0 mm 5 mps 759 mmHg 38%
    22:00 +22°C° 0 mm 5 mps 758 mmHg 39%
    23:00 +21°C° 0 mm 5 mps 758 mmHg 41%

    29 November, Wednesday

    Time Temperature Precipitation Wind Pressure Humidity
    00:00 +21°C° 0.1 mm 6 mps 757 mmHg 44%
    01:00 +21°C° 0.1 mm 6 mps 757 mmHg 48%
    02:00 +20°C° 0.1 mm 6 mps 757 mmHg 51%
    03:00 +20°C° 0.4 mm 7 mps 756 mmHg 57%
    04:00 +20°C° 0.4 mm 7 mps 756 mmHg 62%
    05:00 +20°C° 0.4 mm 7 mps 756 mmHg 68%
    06:00 +20°C° 0.2 mm 8 mps 756 mmHg 69%
    07:00 +21°C° 0.2 mm 8 mps 757 mmHg 71%
    08:00 +21°C° 0.2 mm 9 mps 757 mmHg 72%
    09:00 +22°C° 0.1 mm 9 mps 757 mmHg 68%
    10:00 +23°C° 0.1 mm 9 mps 756 mmHg 64%
    11:00 +24°C° 0.1 mm 10 mps 756 mmHg 60%
    12:00 +24°C° 0.5 mm 10 mps 756 mmHg 62%
    13:00 +23°C° 0.5 mm 10 mps 756 mmHg 64%
    14:00 +23°C° 0.5 mm 10 mps 755 mmHg 66%
    15:00 +22°C° 0.7 mm 10 mps 755 mmHg 70%
    16:00 +21°C° 0.7 mm 9 mps 756 mmHg 73%
    17:00 +21°C° 0.7 mm 9 mps 756 mmHg 77%
    18:00 +21°C° 0.8 mm 9 mps 756 mmHg 78%
    19:00 +20°C° 0.8 mm 8 mps 757 mmHg 79%
    20:00 +20°C° 0.8 mm 8 mps 757 mmHg 81%
    21:00 +20°C° 1.1 mm 8 mps 757 mmHg 80%
    22:00 +20°C° 1.1 mm 8 mps 757 mmHg 80%
    23:00 +20°C° 1.1 mm 8 mps 757 mmHg 80%

    30 November, Thursday

    Time Temperature Precipitation Wind Pressure Humidity
    00:00 +20°C° 0.7 mm 8 mps 757 mmHg 80%
    01:00 +20°C° 0.7 mm 8 mps 756 mmHg 80%
    02:00 +20°C° 0.7 mm 8 mps 756 mmHg 80%
    03:00 +20°C° 1 mm 7 mps 757 mmHg 81%
    04:00 +20°C° 1 mm 7 mps 757 mmHg 81%
    05:00 +20°C° 1 mm 7 mps 757 mmHg 82%
    06:00 +20°C° 0.9 mm 6 mps 757 mmHg 81%
    07:00 +20°C° 0.9 mm 6 mps 758 mmHg 81%
    08:00 +20°C° 0.9 mm 5 mps 758 mmHg 81%
    09:00 +20°C° 0.4 mm 5 mps 759 mmHg 79%
    10:00 +21°C° 0.4 mm 5 mps 759 mmHg 77%
    11:00 +21°C° 0.4 mm 5 mps 759 mmHg 76%
    12:00 +21°C° 0.2 mm 5 mps 759 mmHg 76%
    13:00 +20°C° 0.2 mm 5 mps 759 mmHg 77%
    14:00 +20°C° 0.2 mm 5 mps 759 mmHg 77%
    15:00 +20°C° 0 mm 4 mps 760 mmHg 77%
    16:00 +19°C° 0 mm 4 mps 760 mmHg 77%
    17:00 +19°C° 0 mm 3 mps 761 mmHg 77%
    18:00 +19°C° 0 mm 3 mps 761 mmHg 77%
    19:00 +19°C° 0 mm 3 mps 762 mmHg 76%
    20:00 +18°C° 0 mm 2 mps 762 mmHg 75%
    21:00 +18°C° 0 mm 2 mps 762 mmHg 74%
    22:00 +18°C° 0 mm 2 mps 762 mmHg 74%
    23:00 +18°C° 0 mm 2 mps 762 mmHg 73%
    Show more